When you browse on this site, cookies collect data to enhance your experience and personalize the content and advertising you see.
Visit our Privacy Policy to learn more. By continuing to use the site, you agree to this use of cookies and data.
  • In Hungary
  • List of Countries
  • For 7 days
  • Water Temperature
  • Satellite Maps
  • Weather Map
  • News
  • Weather Widgets
  • user-avatar
    Login

    Hourly Weather Jataizinho

    Today, 16 January, Wednesday

    Time Temperature Precipitation Wind Pressure Humidity
    00:00 +26°C° 0.1 mm 1 mps 730 mmHg 88%
    01:00 +25°C° 0 mm 1 mps 730 mmHg 89%
    02:00 +25°C° 0 mm 1 mps 730 mmHg 90%
    03:00 +25°C° 0 mm 1 mps 730 mmHg 90%
    04:00 +25°C° 0 mm 1 mps 730 mmHg 91%
    05:00 +22°C° 0 mm 0 mps 730 mmHg 91%
    06:00 +22°C° 0 mm 0 mps 730 mmHg 92%
    07:00 +24°C° 0 mm 0 mps 731 mmHg 86%
    08:00 +27°C° 0 mm 0 mps 731 mmHg 80%
    09:00 +29°C° 0 mm 0 mps 732 mmHg 74%
    10:00 +32°C° 0.1 mm 1 mps 732 mmHg 68%
    11:00 +34°C° 0.1 mm 2 mps 732 mmHg 62%
    12:00 +35°C° 0.1 mm 3 mps 732 mmHg 57%
    13:00 +35°C° 0.6 mm 3 mps 731 mmHg 60%
    14:00 +35°C° 0.6 mm 3 mps 731 mmHg 63%
    15:00 +35°C° 0.6 mm 3 mps 730 mmHg 66%
    16:00 +34°C° 0.1 mm 2 mps 730 mmHg 68%
    17:00 +34°C° 0.1 mm 2 mps 730 mmHg 69%
    18:00 +32°C° 0.1 mm 1 mps 729 mmHg 71%
    19:00 +31°C° 0 mm 1 mps 730 mmHg 74%
    20:00 +29°C° 0 mm 1 mps 730 mmHg 77%
    21:00 +26°C° 0 mm 0 mps 730 mmHg 80%
    22:00 +25°C° 0 mm 0 mps 730 mmHg 82%
    23:00 +25°C° 0 mm 0 mps 730 mmHg 83%

    Tomorrow, 17 January, Thursday

    Time Temperature Precipitation Wind Pressure Humidity
    00:00 +24°C° 0 mm 0 mps 730 mmHg 85%
    01:00 +24°C° 0 mm 0 mps 730 mmHg 86%
    02:00 +23°C° 0 mm 0 mps 730 mmHg 87%
    03:00 +23°C° 0 mm 0 mps 729 mmHg 88%
    04:00 +23°C° 0 mm 0 mps 729 mmHg 89%
    05:00 +23°C° 0 mm 0 mps 730 mmHg 90%
    06:00 +22°C° 0 mm 0 mps 730 mmHg 91%
    07:00 +25°C° 0 mm 0 mps 730 mmHg 85%
    08:00 +27°C° 0 mm 0 mps 731 mmHg 79%
    09:00 +29°C° 0 mm 0 mps 731 mmHg 73%
    10:00 +32°C° 0 mm 1 mps 731 mmHg 67%
    11:00 +34°C° 0 mm 1 mps 731 mmHg 61%
    12:00 +35°C° 0 mm 1 mps 731 mmHg 56%
    13:00 +35°C° 0 mm 1 mps 730 mmHg 54%
    14:00 +37°C° 0 mm 2 mps 730 mmHg 53%
    15:00 +37°C° 0 mm 2 mps 729 mmHg 52%
    16:00 +36°C° 0 mm 2 mps 729 mmHg 57%
    17:00 +34°C° 0 mm 1 mps 728 mmHg 61%
    18:00 +33°C° 0 mm 1 mps 728 mmHg 66%
    19:00 +32°C° 0 mm 1 mps 728 mmHg 70%
    20:00 +30°C° 0 mm 1 mps 728 mmHg 73%
    21:00 +28°C° 0 mm 1 mps 729 mmHg 76%
    22:00 +28°C° 0.5 mm 1 mps 729 mmHg 80%
    23:00 +27°C° 0.5 mm 2 mps 730 mmHg 85%

    Day after tomorrow, 18 January, Friday

    Time Temperature Precipitation Wind Pressure Humidity
    00:00 +26°C° 0.5 mm 2 mps 730 mmHg 89%
    01:00 +26°C° 0.2 mm 2 mps 730 mmHg 89%
    02:00 +26°C° 0.2 mm 2 mps 729 mmHg 90%
    03:00 +25°C° 0.2 mm 2 mps 729 mmHg 90%
    04:00 +25°C° 0 mm 2 mps 729 mmHg 89%
    05:00 +25°C° 0 mm 2 mps 729 mmHg 89%
    06:00 +25°C° 0 mm 2 mps 729 mmHg 88%
    07:00 +26°C° 0 mm 2 mps 729 mmHg 84%
    08:00 +27°C° 0 mm 2 mps 730 mmHg 81%
    09:00 +28°C° 0 mm 2 mps 730 mmHg 77%
    10:00 +30°C° 0 mm 2 mps 730 mmHg 70%
    11:00 +32°C° 0 mm 2 mps 730 mmHg 63%
    12:00 +34°C° 0 mm 2 mps 730 mmHg 56%
    13:00 +35°C° 0 mm 2 mps 729 mmHg 54%
    14:00 +35°C° 0 mm 2 mps 729 mmHg 52%
    15:00 +35°C° 0 mm 1 mps 728 mmHg 50%
    16:00 +33°C° 0.4 mm 1 mps 728 mmHg 59%
    17:00 +32°C° 0.4 mm 1 mps 728 mmHg 69%
    18:00 +31°C° 0.4 mm 1 mps 727 mmHg 78%
    19:00 +29°C° 0 mm 1 mps 728 mmHg 80%
    20:00 +28°C° 0 mm 1 mps 728 mmHg 83%
    21:00 +27°C° 0 mm 1 mps 728 mmHg 86%
    22:00 +27°C° 0 mm 1 mps 728 mmHg 87%
    23:00 +26°C° 0 mm 1 mps 728 mmHg 88%

    19 January, Saturday

    Time Temperature Precipitation Wind Pressure Humidity
    00:00 +26°C° 0 mm 1 mps 728 mmHg 89%
    01:00 +25°C° 0 mm 1 mps 728 mmHg 90%
    02:00 +25°C° 0 mm 1 mps 727 mmHg 91%
    03:00 +24°C° 0 mm 1 mps 727 mmHg 91%
    04:00 +24°C° 0 mm 1 mps 727 mmHg 92%
    05:00 +24°C° 0 mm 1 mps 727 mmHg 92%
    06:00 +24°C° 0 mm 1 mps 727 mmHg 92%
    07:00 +26°C° 0 mm 1 mps 728 mmHg 85%
    08:00 +28°C° 0 mm 1 mps 729 mmHg 78%
    09:00 +30°C° 0 mm 1 mps 729 mmHg 71%
    10:00 +31°C° 0.1 mm 1 mps 729 mmHg 66%
    11:00 +34°C° 0.1 mm 2 mps 729 mmHg 62%
    12:00 +35°C° 0.1 mm 2 mps 729 mmHg 57%
    13:00 +35°C° 0.4 mm 2 mps 728 mmHg 58%
    14:00 +35°C° 0.4 mm 3 mps 728 mmHg 59%
    15:00 +35°C° 0.4 mm 3 mps 727 mmHg 60%
    16:00 +34°C° 0.8 mm 3 mps 727 mmHg 67%
    17:00 +32°C° 0.8 mm 2 mps 727 mmHg 73%
    18:00 +30°C° 0.8 mm 2 mps 727 mmHg 80%
    19:00 +29°C° 0.2 mm 1 mps 727 mmHg 82%
    20:00 +28°C° 0.2 mm 1 mps 727 mmHg 85%
    21:00 +27°C° 0.2 mm 1 mps 728 mmHg 87%
    22:00 +27°C° 0 mm 1 mps 728 mmHg 87%
    23:00 +26°C° 0 mm 1 mps 728 mmHg 87%

    20 January, Sunday

    Time Temperature Precipitation Wind Pressure Humidity
    00:00 +24°C° 0 mm 0 mps 727 mmHg 87%
    01:00 +26°C° 0 mm 1 mps 727 mmHg 88%
    02:00 +25°C° 0 mm 1 mps 727 mmHg 89%
    03:00 +25°C° 0 mm 1 mps 727 mmHg 90%
    04:00 +25°C° 0 mm 1 mps 727 mmHg 91%
    05:00 +25°C° 0 mm 1 mps 728 mmHg 91%
    06:00 +25°C° 0 mm 1 mps 728 mmHg 92%
    07:00 +26°C° 0.3 mm 2 mps 729 mmHg 89%
    08:00 +28°C° 0.3 mm 2 mps 729 mmHg 86%
    09:00 +29°C° 0.3 mm 2 mps 730 mmHg 82%
    10:00 +31°C° 0.3 mm 2 mps 729 mmHg 75%
    11:00 +32°C° 0.3 mm 2 mps 729 mmHg 68%
    12:00 +35°C° 0.3 mm 2 mps 729 mmHg 60%
    13:00 +35°C° 0.1 mm 2 mps 728 mmHg 59%
    14:00 +36°C° 0.1 mm 2 mps 728 mmHg 58%
    15:00 +36°C° 0.1 mm 2 mps 727 mmHg 56%
    16:00 +34°C° 1.6 mm 2 mps 727 mmHg 67%
    17:00 +31°C° 1.6 mm 2 mps 727 mmHg 78%
    18:00 +30°C° 1.6 mm 1 mps 727 mmHg 89%
    19:00 +29°C° 0.3 mm 1 mps 727 mmHg 89%
    20:00 +28°C° 0.3 mm 1 mps 727 mmHg 89%
    21:00 +27°C° 0.3 mm 1 mps 728 mmHg 89%
    22:00 +26°C° 0.1 mm 1 mps 728 mmHg 90%
    23:00 +26°C° 0.1 mm 1 mps 728 mmHg 90%

    21 January, Monday

    Time Temperature Precipitation Wind Pressure Humidity
    00:00 +26°C° 0.1 mm 1 mps 728 mmHg 91%
    01:00 +25°C° 0 mm 1 mps 728 mmHg 92%
    02:00 +25°C° 0 mm 1 mps 727 mmHg 92%
    03:00 +25°C° 0 mm 1 mps 727 mmHg 93%
    04:00 +25°C° 0 mm 1 mps 727 mmHg 94%
    05:00 +24°C° 0 mm 2 mps 728 mmHg 95%
    06:00 +24°C° 0 mm 2 mps 728 mmHg 96%
    07:00 +26°C° 0 mm 2 mps 728 mmHg 91%
    08:00 +28°C° 0 mm 2 mps 729 mmHg 85%
    09:00 +29°C° 0 mm 2 mps 729 mmHg 80%
    10:00 +31°C° 0.6 mm 2 mps 729 mmHg 74%
    11:00 +34°C° 0.6 mm 2 mps 729 mmHg 69%
    12:00 +35°C° 0.6 mm 3 mps 729 mmHg 63%
    13:00 +35°C° 0.6 mm 3 mps 729 mmHg 63%
    14:00 +35°C° 0.6 mm 3 mps 728 mmHg 63%
    15:00 +35°C° 0.6 mm 3 mps 728 mmHg 63%
    16:00 +35°C° 0 mm 3 mps 728 mmHg 66%
    17:00 +34°C° 0 mm 2 mps 727 mmHg 70%
    18:00 +32°C° 0 mm 1 mps 727 mmHg 74%
    19:00 +31°C° 0.1 mm 1 mps 728 mmHg 76%
    20:00 +29°C° 0.1 mm 1 mps 728 mmHg 79%
    21:00 +28°C° 0.1 mm 1 mps 728 mmHg 81%
    22:00 +28°C° 0.1 mm 1 mps 729 mmHg 82%
    23:00 +28°C° 0.1 mm 1 mps 729 mmHg 82%
    Show more